{"data":{"norad_id":66196,"intl_designator":"2025-243V","name":"STARLINK-35409","alt_names":[],"object_type":"PAYLOAD","status":"ACTIVE","operator":null,"country":"US","launch_date":"2025-10-26","launch_site_code":"AFETR","launch_vehicle":null,"mission":null,"orbit_class":"UNKNOWN","rcs_meters":null,"size_class":null,"mass_kg":null,"dimensions":null,"purposes":["comms"],"wikipedia_slug":null,"has_3d_model":false,"image_url":null,"decayed_at":null,"tle_current":{"epoch":"2026-09-19T23:34:32.136096Z","epoch_age_seconds":145164,"freshness":"FRESH","line1":"1 66196U 25243V   26262.98231639  .00017675  00000+0  53291-3 0  9991","line2":"2 66196  53.1613  61.8795 0001054  89.9284 270.1840 15.34407123 50417","mean_motion":15.34407123,"eccentricity":0.0001054,"inclination_deg":53.1613,"raan_deg":61.8795,"arg_perigee_deg":89.9284,"mean_anomaly_deg":270.184,"bstar":0.00053291,"rev_number":5041,"period_min":93.847322422786,"perigee_km":461.961046902,"apogee_km":463.4030915618,"semimajor_km":6840.8190692319,"source":"CELESTRAK","updated_at":"2026-09-21T09:00:35.837567Z"}}}